Weather History for Fredericksburg, VA

Change the Weather History Date:

Thursday, November 8, 2012

  Actual Average (KNYG) Record (KNYG)
Temperature  
Mean Temperature 51 °F -  
Max Temperature 60 °F 56 °F 69 °F (1996)
Min Temperature 42 °F 38 °F 30 °F (2007)
Degree Days  
Heating Degree Days 14    
Growing Degree Days 1 (Base 50)    
Moisture  
Dew Point 19 °F    
Average Humidity 32    
Maximum Humidity 54    
Minimum Humidity 16    
Precipitation  
Precipitation 0.00 in - - ()
Sea Level Pressure  
Sea Level Pressure 29.97 in    
Wind  
Wind Speed 9 mph (NW)    
Max Wind Speed 20 mph    
Max Gust Speed 28 mph    
Visibility 10 miles    
Events      
Averages and records for this station are not official NWS values.
T = Trace of Precipitation, MM = Missing Value Source: NWS Daily Summary

Daily Weather History Graph

Daily Weather History Graph

Search for Another Location

Airport:

Trip Planner

Search our weather history database for the weather conditions in past years. The results will help you decide how hot, cold, wet, or windy it might be!

Date:

Astronomy

Nov. 08, 2012 Rise Set
Actual Time 6:43 AM EST 5:02 PM EST
Civil Twilight 6:16 AM EST 5:30 PM EST
Nautical Twilight 5:44 AM EST 6:02 PM EST
Astronomical Twilight 5:13 AM EST 6:33 PM EST
Moon 12:42 AM EST (11/8) 1:38 PM EST (11/8)
Length of Visible Light 11h 14m
Length of Day
10h 18m
Waning Crescent, 33% of the Moon is Illuminated
Nov 8
Waning Crescent
Nov 13
New
Nov 20
First Quarter
Nov 28
Full
Dec 6
Last Quarter

Hourly Weather History & Observations

Time (EST) Temp. Windchill Dew Point Humidity Pressure Visibility Wind Dir Wind Speed Gust Speed Precip Events Conditions
12:15 AM 45.0 °F 40.6 °F 25.7 °F 47% 29.91 in 10.0 mi NNW 8.1 mph - N/A   Scattered Clouds
12:35 AM 45.0 °F 40.1 °F 24.4 °F 45% 29.91 in 10.0 mi NNW 9.2 mph - N/A   Mostly Cloudy
12:55 AM 45.0 °F 41.2 °F 23.5 °F 43% 29.91 in 10.0 mi NNW 6.9 mph - N/A   Mostly Cloudy
1:15 AM 45.5 °F 41.3 °F 22.6 °F 41% 29.91 in 10.0 mi NNW 8.1 mph - N/A   Mostly Cloudy
1:35 AM 45.5 °F 43.2 °F 22.1 °F 40% 29.91 in 10.0 mi NNW 4.6 mph - N/A   Mostly Cloudy
1:55 AM 45.3 °F 42.3 °F 22.1 °F 40% 29.91 in 10.0 mi NW 5.8 mph - N/A   Mostly Cloudy
2:15 AM 45.1 °F 42.0 °F 22.1 °F 40% 29.91 in 10.0 mi NNW 5.8 mph - N/A   Scattered Clouds
2:35 AM 45.0 °F 40.6 °F 21.2 °F 39% 29.91 in 10.0 mi NW 8.1 mph - N/A   Mostly Cloudy
2:55 AM 44.8 °F 40.4 °F 21.0 °F 39% 29.91 in 10.0 mi NW 8.1 mph - N/A   Overcast
3:15 AM 44.8 °F 39.0 °F 20.8 °F 39% 29.91 in 10.0 mi NW 11.5 mph - N/A   Overcast
3:35 AM 45.0 °F 41.8 °F 21.0 °F 39% 29.90 in 10.0 mi NW 5.8 mph - N/A   Overcast
3:55 AM 45.0 °F 39.7 °F 21.0 °F 39% 29.90 in 10.0 mi NW 10.4 mph 16.1 mph N/A   Overcast
4:15 AM 45.0 °F 41.2 °F 20.7 °F 38% 29.91 in 10.0 mi NW 6.9 mph - N/A   Mostly Cloudy
4:35 AM 44.8 °F 41.0 °F 20.8 °F 39% 29.91 in 10.0 mi NNW 6.9 mph - N/A   Scattered Clouds
4:55 AM 44.8 °F 41.0 °F 20.1 °F 37% 29.91 in 10.0 mi NNW 6.9 mph - N/A   Clear
5:15 AM 44.4 °F 40.5 °F 20.5 °F 39% 29.92 in 10.0 mi NNW 6.9 mph - N/A   Clear
5:35 AM 43.9 °F 39.9 °F 20.5 °F 39% 29.92 in 10.0 mi NW 6.9 mph - N/A   Clear
5:55 AM 43.2 °F 39.7 °F 21.2 °F 42% 29.92 in 10.0 mi NW 5.8 mph - N/A   Clear
6:15 AM 42.8 °F 38.6 °F 21.4 °F 43% 29.93 in 10.0 mi NW 6.9 mph - N/A   Clear
6:35 AM 43.5 °F 37.9 °F 19.9 °F 39% 29.94 in 10.0 mi NW 10.4 mph - N/A   Clear
6:55 AM 44.1 °F 38.6 °F 19.4 °F 37% 29.94 in 10.0 mi NW 10.4 mph - N/A   Mostly Cloudy
7:15 AM 44.2 °F 39.2 °F 19.0 °F 37% 29.95 in 10.0 mi NW 9.2 mph 16.1 mph N/A   Mostly Cloudy
7:55 AM 46.9 °F - 18.9 °F 33% 29.96 in 10.0 mi NW 10.4 mph - N/A   Clear
8:15 AM 47.3 °F - 19.4 °F 33% 29.97 in 10.0 mi NW 12.7 mph 17.3 mph N/A   Clear
8:35 AM 46.9 °F - 18.3 °F 32% 29.97 in 10.0 mi NW 8.1 mph - N/A   Clear
8:55 AM 47.1 °F - 18.5 °F 32% 29.98 in 10.0 mi NW 6.9 mph - N/A   Clear
9:15 AM 48.9 °F - 18.5 °F 30% 29.98 in 10.0 mi NNW 4.6 mph - N/A   Clear
9:35 AM 50.9 °F - 16.7 °F 26% 29.98 in 10.0 mi NNW 8.1 mph 16.1 mph N/A   Clear
9:55 AM 50.2 °F - 12.2 °F 22% 29.99 in 10.0 mi NW 11.5 mph 24.2 mph N/A   Clear
10:15 AM 50.9 °F - 12.7 °F 22% 29.99 in 10.0 mi NNW 9.2 mph 18.4 mph N/A   Clear
10:35 AM 53.4 °F - 12.4 °F 20% 29.98 in 10.0 mi NNW 9.2 mph 18.4 mph N/A   Clear
10:55 AM 54.9 °F - 11.3 °F 18% 29.98 in 10.0 mi NNW 10.4 mph 23.0 mph N/A   Clear
11:15 AM 56.3 °F - 10.8 °F 16% 29.97 in 10.0 mi NNW 15.0 mph 25.3 mph N/A   Clear
11:35 AM 55.9 °F - 10.0 °F 16% 29.97 in 10.0 mi NNW 12.7 mph 23.0 mph N/A   Clear
11:55 AM 56.3 °F - 10.4 °F 16% 29.96 in 10.0 mi NNW 15.0 mph 24.2 mph N/A   Clear
12:15 PM 57.7 °F - 10.9 °F 16% 29.96 in 10.0 mi North 13.8 mph 24.2 mph N/A   Clear
12:35 PM 58.5 °F - 12.4 °F 16% 29.95 in 10.0 mi NNW 18.4 mph 24.2 mph N/A   Clear
12:55 PM 58.1 °F - 11.3 °F 16% 29.95 in 10.0 mi NNW 17.3 mph 24.2 mph N/A   Clear
1:15 PM 57.2 °F - 11.3 °F 16% 29.94 in 10.0 mi NNW 17.3 mph 26.5 mph N/A   Clear
1:35 PM 59.0 °F - 13.6 °F 17% 29.94 in 10.0 mi North 15.0 mph 19.6 mph N/A   Clear
1:55 PM 59.0 °F - 13.5 °F 17% 29.94 in 10.0 mi NNW 11.5 mph 17.3 mph N/A   Clear
2:15 PM 60.1 °F - 14.7 °F 17% 29.94 in 10.0 mi NW 15.0 mph 21.9 mph N/A   Clear
2:35 PM 59.2 °F - 12.6 °F 16% 29.94 in 10.0 mi NNW 19.6 mph 27.6 mph N/A   Clear
2:55 PM 58.6 °F - 12.6 °F 16% 29.94 in 10.0 mi North 11.5 mph 20.7 mph N/A   Clear
3:15 PM 58.5 °F - 13.1 °F 17% 29.94 in 10.0 mi NW 15.0 mph 24.2 mph N/A   Clear
3:35 PM 58.3 °F - 13.5 °F 17% 29.94 in 10.0 mi NW 15.0 mph 21.9 mph N/A   Clear
3:55 PM 57.6 °F - 12.4 °F 17% 29.94 in 10.0 mi NW 13.8 mph 27.6 mph N/A   Clear
4:15 PM 56.7 °F - 12.7 °F 18% 29.95 in 10.0 mi NW 12.7 mph 19.6 mph N/A   Clear
4:35 PM 55.8 °F - 12.7 °F 18% 29.95 in 10.0 mi NW 16.1 mph 23.0 mph N/A   Clear
4:55 PM 54.5 °F - 13.3 °F 20% 29.96 in 10.0 mi NW 11.5 mph 23.0 mph N/A   Scattered Clouds
5:15 PM 53.2 °F - 14.7 °F 22% 29.97 in 10.0 mi NW 9.2 mph 18.4 mph N/A   Clear
5:35 PM 52.7 °F - 15.6 °F 23% 29.98 in 10.0 mi NW 9.2 mph - N/A   Clear
5:55 PM 52.5 °F - 17.1 °F 25% 29.99 in 10.0 mi NW 10.4 mph 17.3 mph N/A   Clear
6:15 PM 51.8 °F - 18.7 °F 27% 30.00 in 10.0 mi NW 12.7 mph 18.4 mph N/A   Clear
6:35 PM 51.3 °F - 20.1 °F 29% 30.01 in 10.0 mi NNW 9.2 mph - N/A   Clear
6:55 PM 51.3 °F - 21.2 °F 31% 30.01 in 10.0 mi NW 8.1 mph 16.1 mph N/A   Clear
7:15 PM 51.1 °F - 22.3 °F 32% 30.02 in 10.0 mi NNW 6.9 mph 17.3 mph N/A   Clear
7:35 PM 50.4 °F - 23.9 °F 36% 30.03 in 10.0 mi NNW 8.1 mph 18.4 mph N/A   Clear
7:55 PM 50.2 °F - 24.6 °F 37% 30.04 in 10.0 mi NNW 6.9 mph 16.1 mph N/A   Clear
8:15 PM 49.6 °F - 25.5 °F 39% 30.04 in 10.0 mi NNW 10.4 mph - N/A   Clear
8:35 PM 48.7 °F - 26.4 °F 42% 30.04 in 10.0 mi NW 10.4 mph 19.6 mph N/A   Clear
8:55 PM 48.4 °F - 26.6 °F 43% 30.05 in 10.0 mi NW 6.9 mph - N/A   Clear
9:15 PM 47.5 °F - 27.3 °F 46% 30.05 in 10.0 mi NW 5.8 mph - N/A   Clear
9:35 PM 47.5 °F - 27.5 °F 46% 30.06 in 10.0 mi NNW 5.8 mph - N/A   Clear
9:55 PM 47.3 °F - 28.4 °F 48% 30.06 in 10.0 mi NNW 9.2 mph - N/A   Clear
10:15 PM 47.7 °F - 29.1 °F 49% 30.06 in 10.0 mi NNW 10.4 mph 17.3 mph N/A   Clear
10:35 PM 47.7 °F - 29.3 °F 49% 30.06 in 10.0 mi NNW 11.5 mph 19.6 mph N/A   Clear
10:55 PM 47.3 °F - 29.8 °F 51% 30.06 in 10.0 mi NNW 5.8 mph - N/A   Clear
11:15 PM 47.1 °F - 30.2 °F 52% 30.06 in 10.0 mi NW 9.2 mph - N/A   Clear
11:35 PM 47.1 °F - 30.2 °F 52% 30.08 in 10.0 mi NNW 5.8 mph - N/A   Clear
11:55 PM 46.4 °F 41.9 °F 30.6 °F 54% 30.08 in 10.0 mi NNW 9.2 mph - N/A   Clear